Hlavní strana
METAR-TAF:

METAR-TAF

Letiště :

Tan-Tan, Maroko

zeměpisná šířka: 28-26-54N, zeměpisná délka: 11-09-41W, výška: 199 m

Aktuální stav počasí

Zpráva byla vytvořena před 51 minutami, v 13:00 UTC
Západoseverozápadní vítr 14 kt
Teplota 26°C
Vlhkost vzduchu 54%
Tlak 1015 hPa
Viditelnost 10 km a více
Žádná oblačnost pod 1500 m, nevyskytují se cumulonimby.

METAR: GMAT 261300Z 30014KT CAVOK 26/16 Q1015 NOSIG

Čas: 14:51 (13:51 UTC)


TAF: chybějící

Stav a předpovědi počasí z více než 4 000 letišť (zprávy METAR a TAF).

Červené a žluté tečky na mapě představují dostupné meteorologické stanice.

Když kurzor umístíte na tečku, zobrazí se název stanice.

Pak kliknutím zobrazíte stav a předpověď počasí.

Chcete-li změnit mapu, kliknutím na zelené tlačítko se znaménkem +mapu přiblížíte, kliknutím na zelené tlačítko se znaménkem – mapu oddálíte a kliknutím na zelené šipky přejdete na sousední mapy.


METAR-TAF: